Big Rapids, MI

8:32 AM EST on December 15, 2019 (GMT -0500)
Roben-Hood

Weather History for KRQB - August, 2019

Change the Weather History Date:

Friday, August 9, 2019

  Actual Average Record
Temperature  
Mean Temperature 64 °F -  
Max Temperature 75 °F 80 °F 95 °F (2001)
Min Temperature 53 °F 54 °F 42 °F (1999)
Degree Days  
Heating Degree Days 1    
Growing Degree Days 14 (Base 50)    
Moisture  
Dew Point 54 °F    
Average Humidity 72    
Maximum Humidity 97    
Minimum Humidity 40    
Precipitation  
Precipitation 0.00 in - - ()
Sea Level Pressure  
Sea Level Pressure 29.91 in    
Wind  
Wind Speed 3 mph (WNW)    
Max Wind Speed 14 mph    
Max Gust Speed 28 mph    
Visibility 10 miles    
Events      
Averages and records for this station are not official NWS values.
T = Trace of Precipitation, MM = Missing Value Source: NWS Daily Summary

Daily Weather History Graph

Daily Weather History Graph

Search for Another Location

Airport or City:

Astronomy

Aug. 09, 2019 Rise Set
Actual Time 6:39 AM EDT 8:54 PM EDT
Civil Twilight 6:07 AM EDT 9:26 PM EDT
Nautical Twilight 5:28 AM EDT 10:05 PM EDT
Astronomical Twilight 4:44 AM EDT 10:49 PM EDT
Moon 4:37 PM EDT (8/9) 1:35 AM EDT (8/9)
Length of Visible Light 15h 18m
Length of Day
14h 15m
Waxing Gibbous, 70% of the Moon is Illuminated
Aug 9
Waxing Gibbous
Aug 15
Full
Aug 23
Last Quarter
Aug 30
New
Sep 5
First Quarter

Hourly Weather History & Observations

Time (EDT) Temp. Dew Point Humidity Pressure Visibility Wind Dir Wind Speed Gust Speed Precip Events Conditions
12:15 AM 56.5 °F 54.9 °F 94% 29.86 in 10.0 mi Calm Calm - N/A   Clear
12:16 AM 56.5 °F 54.9 °F 94% 29.86 in 10.0 mi Calm Calm - N/A   Clear
12:35 AM 56.1 °F 54.1 °F 93% 29.87 in 10.0 mi Calm Calm - N/A   Clear
12:40 AM 55.9 °F 54.0 °F 93% 29.87 in 10.0 mi Calm Calm - N/A   Clear
12:57 AM 55.4 °F 53.8 °F 94% 29.87 in 10.0 mi Calm Calm - N/A   Clear
1:15 AM 55.4 °F 53.8 °F 94% 29.87 in 10.0 mi Calm Calm - N/A   Clear
1:16 AM 55.2 °F 53.8 °F 95% 29.87 in 10.0 mi Calm Calm - N/A   Clear
1:35 AM 54.5 °F 53.6 °F 97% 29.87 in 10.0 mi Calm Calm - N/A   Clear
1:55 AM 55.4 °F 54.3 °F 96% 29.87 in 10.0 mi Calm Calm - N/A   Scattered Clouds
2:00 AM 55.8 °F 54.5 °F 96% 29.87 in 10.0 mi Calm Calm - N/A   Scattered Clouds
2:18 AM 55.4 °F 54.1 °F 96% 29.87 in 10.0 mi Calm Calm - N/A   Mostly Cloudy
2:36 AM 55.0 °F 53.6 °F 95% 29.87 in 10.0 mi Calm Calm - N/A   Scattered Clouds
2:55 AM 54.5 °F 53.6 °F 97% 29.87 in 10.0 mi Calm Calm - N/A   Scattered Clouds
2:56 AM 54.5 °F 53.6 °F 97% 29.87 in 10.0 mi Calm Calm - N/A   Scattered Clouds
3:15 AM 54.5 °F 53.4 °F 96% 29.87 in 10.0 mi Calm Calm - N/A   Scattered Clouds
3:16 AM 54.5 °F 53.6 °F 97% 29.87 in 10.0 mi Calm Calm - N/A   Scattered Clouds
3:39 AM 54.7 °F 53.8 °F 97% 29.87 in 10.0 mi Calm Calm - N/A   Mostly Cloudy
3:56 AM 54.9 °F 54.0 °F 97% 29.87 in 10.0 mi Calm Calm - N/A   Mostly Cloudy
4:15 AM 54.7 °F 53.8 °F 97% 29.87 in 10.0 mi Calm Calm - N/A   Scattered Clouds
4:16 AM 54.7 °F 53.8 °F 97% 29.87 in 10.0 mi Calm Calm - N/A   Scattered Clouds
4:35 AM 54.5 °F 53.6 °F 97% 29.87 in 10.0 mi Calm Calm - N/A   Scattered Clouds
4:36 AM 54.5 °F 53.6 °F 97% 29.87 in 10.0 mi Calm Calm - N/A   Clear
4:59 AM 54.3 °F 53.4 °F 97% 29.87 in 10.0 mi Calm Calm - N/A   Clear
5:17 AM 54.0 °F 53.1 °F 97% 29.88 in 10.0 mi ESE 3.5 mph - N/A   Clear
5:35 AM 54.1 °F 53.4 °F 97% 29.88 in 10.0 mi Calm Calm - N/A   Clear
5:55 AM 53.8 °F 53.1 °F 97% 29.88 in 10.0 mi Calm Calm - N/A   Clear
5:56 AM 53.8 °F 53.1 °F 97% 29.88 in 10.0 mi Calm Calm - N/A   Clear
6:15 AM 53.6 °F 52.9 °F 97% 29.88 in 10.0 mi Calm Calm - N/A   Clear
6:38 AM 53.6 °F 52.9 °F 97% 29.89 in 10.0 mi Calm Calm - N/A   Clear
6:56 AM 53.6 °F 52.7 °F 97% 29.89 in 10.0 mi ESE 4.6 mph - N/A   Clear
7:15 AM 54.0 °F 53.2 °F 97% 29.90 in 10.0 mi Calm Calm - N/A   Clear
7:38 AM 54.9 °F 54.1 °F 97% 29.90 in 10.0 mi Calm Calm - N/A   Clear
7:56 AM 55.8 °F 55.0 °F 97% 29.90 in 10.0 mi Calm Calm - N/A   Clear
8:15 AM 58.3 °F 57.4 °F 97% 29.90 in 10.0 mi Calm Calm - N/A   Clear
8:16 AM 58.3 °F 57.4 °F 97% 29.90 in 10.0 mi Calm Calm - N/A   Clear
8:55 AM 65.8 °F 59.4 °F 80% 29.92 in 10.0 mi WNW 4.6 mph - N/A   Clear
9:00 AM 66.9 °F 58.8 °F 75% 29.91 in 10.0 mi West 6.9 mph - N/A   Clear
9:18 AM 67.6 °F 57.7 °F 71% 29.92 in 10.0 mi West 6.9 mph - N/A   Clear
9:35 AM 68.0 °F 57.9 °F 70% 29.92 in 10.0 mi WNW 9.2 mph - N/A   Clear
9:55 AM 68.4 °F 58.5 °F 71% 29.92 in 10.0 mi WNW 9.2 mph - N/A   Clear
9:56 AM 68.5 °F 58.5 °F 70% 29.92 in 10.0 mi WNW 8.1 mph - N/A   Clear
10:15 AM 69.1 °F 58.3 °F 68% 29.92 in 10.0 mi WNW 8.1 mph - N/A   Clear
10:20 AM 69.8 °F 58.6 °F 68% 29.92 in 10.0 mi West 9.2 mph - N/A   Clear
10:38 AM 70.0 °F 57.4 °F 64% 29.93 in 10.0 mi WNW 8.1 mph - N/A   Clear
10:56 AM 72.0 °F 56.8 °F 59% 29.93 in 10.0 mi WNW 11.5 mph - N/A   Clear
11:15 AM 72.1 °F 56.3 °F 57% 29.93 in 10.0 mi West 10.4 mph - N/A   Scattered Clouds
11:16 AM 72.1 °F 56.3 °F 57% 29.93 in 10.0 mi West 11.5 mph - N/A   Scattered Clouds
11:35 AM 72.1 °F 54.9 °F 54% 29.92 in 10.0 mi WNW 10.4 mph 17.3 mph N/A   Scattered Clouds
11:59 AM 73.9 °F 53.4 °F 49% 29.92 in 10.0 mi WNW 8.1 mph - N/A   Mostly Cloudy
12:17 PM 73.4 °F 53.2 °F 49% 29.92 in 10.0 mi WNW 10.4 mph 17.3 mph N/A   Scattered Clouds
12:35 PM 74.1 °F 52.3 °F 46% 29.92 in 10.0 mi WNW 9.2 mph - N/A   Scattered Clouds
12:36 PM 73.9 °F 52.5 °F 47% 29.92 in 10.0 mi WNW 9.2 mph - N/A   Scattered Clouds
12:55 PM 74.5 °F 50.9 °F 43% 29.92 in 10.0 mi West 13.8 mph 25.3 mph N/A   Scattered Clouds
1:15 PM 75.2 °F 52.0 °F 44% 29.92 in 10.0 mi WNW 10.4 mph 25.3 mph N/A   Scattered Clouds
1:20 PM 74.8 °F 51.6 °F 44% 29.92 in 10.0 mi West 9.2 mph 25.3 mph N/A   Scattered Clouds
1:37 PM 75.2 °F 50.4 °F 42% 29.92 in 10.0 mi WNW 10.4 mph 25.3 mph N/A   Scattered Clouds
1:56 PM 74.7 °F 50.9 °F 43% 29.92 in 10.0 mi NW 12.7 mph 25.3 mph N/A   Scattered Clouds
2:15 PM 75.7 °F 52.3 °F 44% 29.92 in 10.0 mi WNW 8.1 mph 19.6 mph N/A   Scattered Clouds
2:16 PM 75.6 °F 52.5 °F 45% 29.92 in 10.0 mi West 11.5 mph 25.3 mph N/A   Mostly Cloudy
2:39 PM 75.0 °F 51.4 °F 44% 29.92 in 10.0 mi WNW 9.2 mph 23.0 mph N/A   Mostly Cloudy
2:57 PM 75.9 °F 50.4 °F 41% 29.92 in 10.0 mi WNW 11.5 mph 23.0 mph N/A   Mostly Cloudy
3:35 PM 74.1 °F 51.8 °F 46% 29.92 in 10.0 mi West 12.7 mph 27.6 mph N/A   Scattered Clouds
3:36 PM 73.9 °F 52.0 °F 46% 29.92 in 10.0 mi West 12.7 mph 27.6 mph N/A   Scattered Clouds
3:55 PM 74.8 °F 52.2 °F 45% 29.91 in 10.0 mi West 9.2 mph 27.6 mph N/A   Scattered Clouds
4:18 PM 74.3 °F 52.7 °F 47% 29.91 in 10.0 mi NW 12.7 mph 21.9 mph N/A   Scattered Clouds
4:36 PM 72.3 °F 53.6 °F 52% 29.92 in 10.0 mi NW 13.8 mph 19.6 mph N/A   Scattered Clouds
4:55 PM 73.6 °F 52.3 °F 47% 29.92 in 10.0 mi WNW 10.4 mph 20.7 mph N/A   Scattered Clouds
5:15 PM 73.8 °F 51.4 °F 45% 29.93 in 10.0 mi WNW 10.4 mph 23.0 mph N/A   Clear
5:16 PM 73.6 °F 51.3 °F 45% 29.93 in 10.0 mi WNW 10.4 mph 23.0 mph N/A   Clear
5:39 PM 73.4 °F 50.2 °F 44% 29.93 in 10.0 mi NW 12.7 mph 21.9 mph N/A   Scattered Clouds
5:56 PM 72.9 °F 46.9 °F 40% 29.93 in 10.0 mi NW 12.7 mph 26.5 mph N/A   Scattered Clouds
6:15 PM 73.4 °F 49.5 °F 43% 29.94 in 10.0 mi NW 12.7 mph 18.4 mph N/A   Clear
6:16 PM 73.4 °F 49.3 °F 42% 29.94 in 10.0 mi NW 12.7 mph 18.4 mph N/A   Clear
6:35 PM 72.1 °F 48.9 °F 44% 29.94 in 10.0 mi WNW 10.4 mph 18.4 mph N/A   Mostly Cloudy
6:59 PM 71.4 °F 49.8 °F 46% 29.94 in 10.0 mi NW 10.4 mph - N/A   Scattered Clouds
7:16 PM 71.6 °F 49.3 °F 45% 29.94 in 10.0 mi NW 12.7 mph 16.1 mph N/A   Scattered Clouds
7:35 PM 71.6 °F 50.2 °F 47% 29.94 in 10.0 mi NW 10.4 mph 16.1 mph N/A   Clear
7:36 PM 71.6 °F 50.2 °F 47% 29.94 in 10.0 mi NW 9.2 mph 16.1 mph N/A   Clear
7:55 PM 70.7 °F 50.9 °F 49% 29.94 in 10.0 mi NW 9.2 mph - N/A   Clear
8:00 PM 70.5 °F 51.1 °F 50% 29.94 in 10.0 mi NW 6.9 mph - N/A   Clear
8:18 PM 69.8 °F 51.8 °F 53% 29.94 in 10.0 mi WNW 9.2 mph - N/A   Clear
8:36 PM 68.5 °F 52.5 °F 57% 29.94 in 10.0 mi WNW 11.5 mph - N/A   Clear
8:55 PM 67.1 °F 53.6 °F 62% 29.95 in 10.0 mi WNW 8.1 mph - N/A   Clear
8:56 PM 66.9 °F 53.6 °F 62% 29.95 in 10.0 mi WNW 8.1 mph - N/A   Clear
9:15 PM 63.9 °F 54.7 °F 72% 29.95 in 10.0 mi West 3.5 mph - N/A   Clear
9:39 PM 62.6 °F 54.7 °F 75% 29.95 in 10.0 mi West 3.5 mph - N/A   Clear
9:57 PM 62.4 °F 54.7 °F 76% 29.96 in 10.0 mi West 3.5 mph - N/A   Clear
10:15 PM 60.1 °F 54.5 °F 82% 29.96 in 10.0 mi Calm Calm - N/A   Clear
10:16 PM 59.7 °F 54.5 °F 83% 29.96 in 10.0 mi Calm Calm - N/A   Clear
10:35 PM 60.1 °F 55.4 °F 85% 29.96 in 10.0 mi Calm Calm - N/A   Clear
10:36 PM 60.1 °F 55.2 °F 84% 29.96 in 10.0 mi Calm Calm - N/A   Clear
10:55 PM 57.0 °F 54.3 °F 91% 29.96 in 10.0 mi Calm Calm - N/A   Clear
11:00 PM 57.2 °F 55.0 °F 92% 29.96 in 10.0 mi Calm Calm - N/A   Clear
11:18 PM 57.4 °F 55.0 °F 92% 29.96 in 10.0 mi Calm Calm - N/A   Clear
11:36 PM 57.9 °F 55.4 °F 91% 29.96 in 10.0 mi Calm Calm - N/A   Clear
11:55 PM 56.8 °F 54.9 °F 93% 29.96 in 10.0 mi Calm Calm - N/A   Clear